Find Starlink 30888

NORAD ID: 58370 Int'l Des: 2023-177 Owner: SPXS Country: US Constellation: starlink operational
LEOCIRCULAR

实时位置

正在加载3D地球...

关于 Starlink 30888

正在加载描述...

即将过境

Passes for default location (London). Set your location on the main map for personalized predictions.

高度历史

Loading altitude history...

两行轨道根数

1 58370U 23177V 26127.88413207 .00002738 00000-0 10902-3 0 9999
2 58370 43.0052 16.0205 0001651 255.1734 104.8935 15.27573329137299
Epoch: May 7, 2026 • Age: 6 hours

当前状态

高度 486.8 km
速度 7.62 km/s
星下点 -18.83°S, 76.67°E
发射日期 Nov 18, 2023
运行时间 2.4 years
类型 internet

技术详情

分类 Payload
质量 730.00 kg
干质量 700.00 kg
总质量 730.00 kg
长度 0.30 m
直径 4.10 m
跨度 29.00 m
形状 Box + pan
制造商 SPXS
平台类型 Starlink V2M
阶段状态 In Orbit
所有者/国家 SPXS/US

Most Searched